CFG5GH LGSK-EDDL

Flight info

Callsign CFG5GH
Flight time 2h 45m
Altitude 36000
Route TSL UL617 MAKED DCT LONTA UL608 DOLEV DCT PETOV/N0445F380 DCT LAMSI L604 RUDNO DCT SULUS T852 TINSA T854 DOMUX DOMUX1A
Aircraft A319/M-SDE3FGHIRWY/LB1

Departure

Time 2026-05-05 14:44
Airport Skiathos Island National Airport (LGSK)

Arrival

Time 2026-05-05 17:30
Airport Düsseldorf Airport (EDDL)
Time Latitude Longitude Altitude Speed Heading
2026-05-05 14:25 39.17910 23.50235 39 ft 0 kts 289°
2026-05-05 14:37 39.17905 23.50253 39 ft 3 kts 287°
2026-05-05 14:37 39.17900 23.50281 39 ft 3 kts 279°
2026-05-05 14:37 39.17898 23.50309 39 ft 3 kts 261°
2026-05-05 14:37 39.17904 23.50332 40 ft 3 kts 211°
2026-05-05 14:38 39.17909 23.50336 37 ft 1 kts 199°
2026-05-05 14:40 39.17906 23.50334 40 ft 1 kts 199°
2026-05-05 14:40 39.17883 23.50324 40 ft 6 kts 199°
2026-05-05 14:41 39.17825 23.50298 39 ft 11 kts 199°
2026-05-05 14:41 39.17745 23.50265 39 ft 9 kts 195°
2026-05-05 14:41 39.17678 23.50246 39 ft 10 kts 196°
2026-05-05 14:41 39.17614 23.50216 38 ft 6 kts 199°
2026-05-05 14:42 39.17585 23.50222 38 ft 6 kts 140°
2026-05-05 14:42 39.17550 23.50268 39 ft 8 kts 137°
2026-05-05 14:42 39.17483 23.50265 39 ft 14 kts 196°
2026-05-05 14:42 39.17352 23.50209 33 ft 26 kts 199°
2026-05-05 14:43 39.17172 23.50128 22 ft 20 kts 200°
2026-05-05 14:43 39.17070 23.50067 18 ft 15 kts 223°
2026-05-05 14:43 39.17022 23.50055 11 ft 2 kts 78°
2026-05-05 14:43 39.17027 23.50057 11 ft 1 kts 32°
2026-05-05 14:44 39.17196 23.50139 23 ft 65 kts 19°
2026-05-05 14:44 39.17879 23.50444 43 ft 141 kts 19°
2026-05-05 14:44 39.18870 23.50884 588 ft 150 kts 20°
2026-05-05 14:44 39.19849 23.51320 1330 ft 149 kts 18°
2026-05-05 14:45 39.20903 23.51795 1638 ft 172 kts 18°
2026-05-05 14:45 39.22091 23.52347 1980 ft 190 kts 18°
2026-05-05 14:45 39.23408 23.52935 2392 ft 207 kts 17°
2026-05-05 14:45 39.24772 23.53529 3187 ft 206 kts 17°
2026-05-05 14:46 39.26128 23.54123 3953 ft 206 kts 17°
2026-05-05 14:46 39.27425 23.54929 4663 ft 212 kts 41°
2026-05-05 14:46 39.28091 23.56628 5320 ft 222 kts 83°
2026-05-05 14:46 39.27847 23.58613 6030 ft 227 kts 104°
2026-05-05 14:47 39.27343 23.60544 6755 ft 228 kts 107°
2026-05-05 14:47 39.26721 23.62438 7417 ft 233 kts 121°
2026-05-05 14:47 39.25491 23.63802 8038 ft 240 kts 155°
2026-05-05 14:47 39.23850 23.64128 8667 ft 243 kts 189°
2026-05-05 14:48 39.22228 23.63506 9344 ft 244 kts 200°
2026-05-05 14:48 39.20618 23.62769 10011 ft 247 kts 203°
2026-05-05 14:48 39.19185 23.61569 10580 ft 247 kts 229°
2026-05-05 14:48 39.18272 23.59761 11220 ft 244 kts 253°
2026-05-05 14:49 39.17977 23.57639 11854 ft 241 kts 274°
2026-05-05 14:49 39.18151 23.55512 12511 ft 238 kts 294°
2026-05-05 14:49 39.19032 23.53731 13155 ft 234 kts 321°
2026-05-05 14:49 39.20477 23.52725 13404 ft 251 kts 350°
2026-05-05 14:50 39.22315 23.52470 13632 ft 274 kts 356°
2026-05-05 14:50 39.24254 23.52261 14007 ft 289 kts 355°
2026-05-05 14:50 39.26274 23.52035 14622 ft 293 kts 355°
2026-05-05 14:50 39.28316 23.51797 15307 ft 296 kts 355°
2026-05-05 14:51 39.30376 23.51551 16001 ft 298 kts 354°
2026-05-05 14:51 39.32446 23.51302 16701 ft 300 kts 354°
2026-05-05 14:51 39.34532 23.51051 17380 ft 302 kts 354°
2026-05-05 14:51 39.36634 23.50796 18062 ft 305 kts 354°
2026-05-05 14:52 39.38755 23.50542 18689 ft 307 kts 354°
2026-05-05 14:52 39.40886 23.50277 19291 ft 308 kts 351°
2026-05-05 14:52 39.42977 23.49610 19724 ft 316 kts 340°
2026-05-05 14:52 39.45097 23.48602 19847 ft 333 kts 339°
2026-05-05 14:53 39.47324 23.47517 19963 ft 350 kts 339°
2026-05-05 14:53 39.49650 23.46376 20102 ft 365 kts 339°
2026-05-05 14:53 39.52052 23.45199 20470 ft 372 kts 339°
2026-05-05 14:53 39.54484 23.44010 20976 ft 375 kts 339°
2026-05-05 14:54 39.56932 23.42818 21494 ft 377 kts 339°
2026-05-05 14:54 39.59400 23.41617 21996 ft 380 kts 339°
2026-05-05 14:54 39.61879 23.40414 22500 ft 382 kts 339°
2026-05-05 14:54 39.64370 23.39203 23003 ft 383 kts 339°
2026-05-05 14:55 39.66872 23.37983 23499 ft 385 kts 339°
2026-05-05 14:55 39.69389 23.36754 23917 ft 387 kts 339°
2026-05-05 14:55 39.71911 23.35521 24317 ft 388 kts 339°
2026-05-05 14:55 39.74441 23.34286 24742 ft 389 kts 339°
2026-05-05 14:56 39.76977 23.33047 25137 ft 390 kts 338°
2026-05-05 14:56 39.79526 23.31802 25526 ft 392 kts 338°
2026-05-05 14:56 39.82089 23.30551 25893 ft 394 kts 338°
2026-05-05 14:56 39.84657 23.29295 26285 ft 395 kts 338°
2026-05-05 14:57 39.87236 23.28031 26668 ft 396 kts 338°
2026-05-05 14:57 39.89818 23.26766 27046 ft 397 kts 338°
2026-05-05 14:57 39.92413 23.25492 27411 ft 399 kts 338°
2026-05-05 14:57 39.95011 23.24218 27776 ft 400 kts 338°
2026-05-05 14:58 39.97621 23.22937 28113 ft 401 kts 338°
2026-05-05 14:58 40.00241 23.21647 28466 ft 403 kts 338°
2026-05-05 14:58 40.02867 23.20352 28771 ft 405 kts 338°
2026-05-05 14:58 40.05514 23.19043 29058 ft 407 kts 338°
2026-05-05 14:59 40.08169 23.17730 29361 ft 409 kts 337°
2026-05-05 14:59 40.10798 23.16431 29670 ft 410 kts 337°
2026-05-05 14:59 40.13472 23.15109 30049 ft 410 kts 337°
2026-05-05 14:59 40.16169 23.13775 30440 ft 408 kts 337°
2026-05-05 15:00 40.18822 23.12461 30814 ft 407 kts 337°
2026-05-05 15:00 40.20572 23.11593 31059 ft 406 kts 337°
2026-05-05 15:00 40.24104 23.09844 31552 ft 404 kts 337°
2026-05-05 15:00 40.26723 23.08546 31957 ft 402 kts 337°
2026-05-05 15:01 40.29339 23.07249 32297 ft 402 kts 337°
2026-05-05 15:01 40.31950 23.05954 32637 ft 402 kts 337°
2026-05-05 15:01 40.34532 23.04672 32975 ft 401 kts 337°
2026-05-05 15:01 40.37141 23.03374 33321 ft 401 kts 337°
2026-05-05 15:02 40.39749 23.02072 33665 ft 401 kts 337°
2026-05-05 15:02 40.42352 23.00771 33999 ft 400 kts 337°
2026-05-05 15:02 40.44957 22.99465 34311 ft 400 kts 336°
2026-05-05 15:02 40.47451 22.97878 34608 ft 398 kts 330°
2026-05-05 15:03 40.49894 22.96162 34925 ft 398 kts 330°
2026-05-05 15:03 40.52333 22.94453 35221 ft 397 kts 330°
2026-05-05 15:03 40.54774 22.92742 35502 ft 397 kts 330°
2026-05-05 15:03 40.57209 22.91038 35774 ft 396 kts 330°
2026-05-05 15:04 40.59646 22.89335 35956 ft 397 kts 330°
2026-05-05 15:04 40.62084 22.87631 35998 ft 397 kts 330°
2026-05-05 15:04 40.66959 22.84214 35996 ft 396 kts 330°
2026-05-05 15:05 40.74262 22.79072 35985 ft 398 kts 330°
2026-05-05 15:06 40.79137 22.75641 35976 ft 396 kts 330°
2026-05-05 15:06 40.83991 22.72216 35975 ft 395 kts 330°
2026-05-05 15:07 40.88834 22.68785 35974 ft 395 kts 330°
2026-05-05 15:07 40.93685 22.65358 35977 ft 395 kts 330°
2026-05-05 15:08 40.98545 22.61923 35976 ft 396 kts 330°
2026-05-05 15:08 41.03406 22.58463 35975 ft 397 kts 330°
2026-05-05 15:09 41.08285 22.54991 35980 ft 398 kts 330°
2026-05-05 15:09 41.13112 22.51406 35983 ft 398 kts 324°
2026-05-05 15:10 41.17416 22.46881 35984 ft 398 kts 321°
2026-05-05 15:10 41.21733 22.42272 35982 ft 398 kts 320°
2026-05-05 15:11 41.26083 22.37631 35986 ft 398 kts 320°
2026-05-05 15:11 41.30375 22.33036 35991 ft 399 kts 320°
2026-05-05 15:12 41.34695 22.28404 36000 ft 399 kts 320°
2026-05-05 15:12 41.39043 22.23734 36003 ft 399 kts 320°
2026-05-05 15:13 41.43366 22.19089 36007 ft 399 kts 320°
2026-05-05 15:13 41.47658 22.14470 36009 ft 400 kts 320°
2026-05-05 15:14 41.51978 22.09800 35995 ft 400 kts 320°
2026-05-05 15:14 41.56296 22.05117 36002 ft 400 kts 320°
2026-05-05 15:15 41.60613 22.00441 36004 ft 400 kts 320°
2026-05-05 15:15 41.64928 21.95762 36006 ft 399 kts 320°
2026-05-05 15:16 41.69239 21.91068 36009 ft 399 kts 320°
2026-05-05 15:16 41.73556 21.86364 35996 ft 400 kts 320°
2026-05-05 15:17 41.77880 21.81656 35992 ft 401 kts 320°
2026-05-05 15:17 41.82201 21.76930 35982 ft 401 kts 319°
2026-05-05 15:18 41.86528 21.72186 35986 ft 402 kts 320°
2026-05-05 15:18 41.90123 21.68242 35989 ft 402 kts 319°
2026-05-05 15:19 41.94450 21.63484 35998 ft 402 kts 320°
2026-05-05 15:19 41.98774 21.58714 35989 ft 403 kts 320°
2026-05-05 15:20 42.03115 21.53929 35980 ft 404 kts 320°
2026-05-05 15:20 42.07458 21.49134 35991 ft 404 kts 320°
2026-05-05 15:21 42.11798 21.44319 35994 ft 404 kts 320°
2026-05-05 15:21 42.16089 21.39416 36007 ft 404 kts 314°
2026-05-05 15:22 42.19759 21.33684 36008 ft 404 kts 310°
2026-05-05 15:22 42.23404 21.27901 36001 ft 405 kts 310°
2026-05-05 15:23 42.27054 21.22115 36010 ft 405 kts 310°
2026-05-05 15:23 42.30679 21.16346 36020 ft 405 kts 310°
2026-05-05 15:24 42.34348 21.10491 36024 ft 406 kts 310°
2026-05-05 15:24 42.37973 21.04705 36026 ft 406 kts 310°
2026-05-05 15:25 42.41622 20.98869 36033 ft 406 kts 310°
2026-05-05 15:25 42.45263 20.93026 36036 ft 406 kts 310°
2026-05-05 15:26 42.48898 20.87176 36041 ft 406 kts 310°
2026-05-05 15:26 42.52538 20.81317 36038 ft 406 kts 310°
2026-05-05 15:27 42.56175 20.75450 36033 ft 407 kts 309°
2026-05-05 15:27 42.59814 20.69570 36023 ft 407 kts 309°
2026-05-05 15:28 42.63458 20.63674 36020 ft 408 kts 309°
2026-05-05 15:28 42.67092 20.57763 36016 ft 408 kts 309°
2026-05-05 15:29 42.70728 20.51838 36019 ft 408 kts 309°
2026-05-05 15:29 42.74362 20.45912 36009 ft 408 kts 309°
2026-05-05 15:30 42.78003 20.39964 36017 ft 409 kts 309°
2026-05-05 15:30 42.81652 20.34002 36014 ft 410 kts 309°
2026-05-05 15:31 42.85670 20.28503 36019 ft 411 kts 318°
2026-05-05 15:31 42.90050 20.23476 36017 ft 412 kts 318°
2026-05-05 15:32 42.94433 20.18430 36017 ft 412 kts 318°
2026-05-05 15:32 42.98809 20.13372 36009 ft 413 kts 317°
2026-05-05 15:33 43.03187 20.08299 36014 ft 413 kts 317°
2026-05-05 15:33 43.07573 20.03206 36007 ft 414 kts 317°
2026-05-05 15:34 43.11958 19.98107 36006 ft 414 kts 317°
2026-05-05 15:34 43.16355 19.92999 36012 ft 414 kts 317°
2026-05-05 15:35 43.20717 19.87916 36016 ft 415 kts 317°
2026-05-05 15:35 43.25134 19.82739 36023 ft 415 kts 317°
2026-05-05 15:36 43.29492 19.77624 36014 ft 415 kts 317°
2026-05-05 15:36 43.33891 19.72468 36014 ft 416 kts 317°
2026-05-05 15:37 43.38298 19.67296 36014 ft 416 kts 317°
2026-05-05 15:37 43.42697 19.62106 36015 ft 416 kts 317°
2026-05-05 15:38 43.47094 19.56920 36009 ft 416 kts 317°
2026-05-05 15:38 43.51493 19.51715 36013 ft 417 kts 317°
2026-05-05 15:39 43.55894 19.46491 36001 ft 418 kts 317°
2026-05-05 15:39 43.60300 19.41249 36005 ft 419 kts 317°
2026-05-05 15:40 43.64722 19.35990 36000 ft 419 kts 317°
2026-05-05 15:40 43.69139 19.30717 35998 ft 420 kts 317°
2026-05-05 15:41 43.73554 19.25438 36005 ft 420 kts 317°
2026-05-05 15:41 43.77975 19.20138 36008 ft 420 kts 317°
2026-05-05 15:42 43.82396 19.14828 36007 ft 421 kts 317°
2026-05-05 15:42 43.86828 19.09506 36007 ft 421 kts 317°
2026-05-05 15:43 43.91226 19.04217 36008 ft 422 kts 316°
2026-05-05 15:43 43.95651 18.98871 36010 ft 422 kts 316°
2026-05-05 15:44 44.00074 18.93515 36009 ft 422 kts 317°
2026-05-05 15:44 44.04498 18.88154 36001 ft 422 kts 317°
2026-05-05 15:45 44.08925 18.82773 36004 ft 423 kts 316°
2026-05-05 15:45 44.13354 18.77382 35990 ft 424 kts 316°
2026-05-05 15:46 44.17795 18.71974 35984 ft 424 kts 316°
2026-05-05 15:46 44.22230 18.66549 35985 ft 424 kts 316°
2026-05-05 15:47 44.26661 18.61107 35979 ft 425 kts 316°
2026-05-05 15:47 44.31105 18.55649 35964 ft 426 kts 316°
2026-05-05 15:48 44.35523 18.50225 35961 ft 426 kts 316°
2026-05-05 15:48 44.39975 18.44742 35962 ft 426 kts 316°
2026-05-05 15:49 44.44424 18.39254 35963 ft 426 kts 316°
2026-05-05 15:49 44.48866 18.33757 35971 ft 427 kts 316°
2026-05-05 15:50 44.53313 18.28238 35962 ft 428 kts 316°
2026-05-05 15:50 44.57764 18.22688 35960 ft 428 kts 316°
2026-05-05 15:51 44.62217 18.17127 35953 ft 429 kts 316°
2026-05-05 15:51 44.66683 18.11556 35954 ft 429 kts 316°
2026-05-05 15:52 44.71147 18.05981 35952 ft 430 kts 315°
2026-05-05 15:52 44.75610 18.00386 35954 ft 430 kts 315°
2026-05-05 15:53 44.80079 17.94754 35945 ft 431 kts 315°
2026-05-05 15:53 44.84559 17.89109 35944 ft 432 kts 315°
2026-05-05 15:54 44.89047 17.83465 35951 ft 433 kts 315°
2026-05-05 15:54 44.93502 17.77836 35954 ft 433 kts 315°
2026-05-05 15:55 44.97987 17.72150 35964 ft 434 kts 315°
2026-05-05 15:55 45.02474 17.66443 35956 ft 434 kts 315°
2026-05-05 15:56 45.06958 17.60728 35954 ft 434 kts 315°
2026-05-05 15:56 45.11444 17.55000 35956 ft 434 kts 315°
2026-05-05 15:57 45.15930 17.49265 35955 ft 434 kts 315°
2026-05-05 15:57 45.20414 17.43524 35959 ft 435 kts 315°
2026-05-05 15:58 45.24905 17.37757 35969 ft 436 kts 315°
2026-05-05 15:58 45.29393 17.31976 35973 ft 436 kts 315°
2026-05-05 15:59 45.33882 17.26181 35978 ft 436 kts 315°
2026-05-05 15:59 45.38365 17.20380 35979 ft 436 kts 315°
2026-05-05 16:00 45.42843 17.14574 35981 ft 436 kts 315°
2026-05-05 16:00 45.47329 17.08754 35982 ft 436 kts 315°
2026-05-05 16:01 45.51803 17.02928 35988 ft 436 kts 315°
2026-05-05 16:01 45.56278 16.97084 35995 ft 436 kts 315°
2026-05-05 16:02 45.60738 16.91239 35996 ft 435 kts 314°
2026-05-05 16:02 45.65196 16.85385 35996 ft 435 kts 314°
2026-05-05 16:03 45.69653 16.79533 35992 ft 434 kts 315°
2026-05-05 16:03 45.74074 16.73727 35991 ft 435 kts 315°
2026-05-05 16:04 45.78528 16.67862 35990 ft 435 kts 314°
2026-05-05 16:04 45.82975 16.61981 35992 ft 435 kts 314°
2026-05-05 16:05 45.87415 16.56086 35990 ft 434 kts 314°
2026-05-05 16:05 45.91852 16.50190 35987 ft 434 kts 314°
2026-05-05 16:06 45.96285 16.44287 35988 ft 435 kts 314°
2026-05-05 16:06 46.00718 16.38379 36001 ft 435 kts 314°
2026-05-05 16:07 46.04402 16.33451 35985 ft 435 kts 314°
2026-05-05 16:07 46.08825 16.27516 35982 ft 435 kts 314°
2026-05-05 16:08 46.13251 16.21568 35975 ft 435 kts 314°
2026-05-05 16:08 46.17674 16.15616 35968 ft 435 kts 314°
2026-05-05 16:09 46.22085 16.09654 35981 ft 434 kts 314°
2026-05-05 16:09 46.26497 16.03680 35971 ft 435 kts 314°
2026-05-05 16:10 46.30948 15.97759 35958 ft 437 kts 319°
2026-05-05 16:10 46.35987 15.92767 35950 ft 439 kts 323°
2026-05-05 16:11 46.41068 15.87844 35942 ft 440 kts 323°
2026-05-05 16:12 46.51234 15.77946 35947 ft 440 kts 323°
2026-05-05 16:13 46.63946 15.65515 35932 ft 441 kts 323°
2026-05-05 16:13 46.69036 15.60518 35926 ft 441 kts 323°
2026-05-05 16:14 46.79189 15.50510 35906 ft 440 kts 322°
2026-05-05 16:15 46.89326 15.40487 35895 ft 440 kts 322°
2026-05-05 16:16 46.99427 15.30421 35909 ft 439 kts 322°
2026-05-05 16:17 47.07007 15.22843 35885 ft 440 kts 322°
2026-05-05 16:18 47.14616 15.15228 35859 ft 442 kts 322°
2026-05-05 16:19 47.22227 15.07569 35864 ft 442 kts 322°
2026-05-05 16:19 47.29838 14.99882 35886 ft 442 kts 322°
2026-05-05 16:20 47.39985 14.89606 35874 ft 442 kts 322°
2026-05-05 16:22 47.52614 14.76732 35828 ft 443 kts 321°
2026-05-05 16:23 47.62744 14.66354 35794 ft 443 kts 321°
2026-05-05 16:23 47.70338 14.58540 35784 ft 443 kts 322°
2026-05-05 16:24 47.75405 14.53318 35768 ft 443 kts 322°
2026-05-05 16:25 47.82995 14.45451 35752 ft 443 kts 322°
2026-05-05 16:25 47.90585 14.37559 35744 ft 443 kts 322°
2026-05-05 16:26 48.00704 14.27008 35730 ft 444 kts 321°
2026-05-05 16:27 48.05758 14.21711 35726 ft 444 kts 321°
2026-05-05 16:27 48.10813 14.16396 35737 ft 444 kts 321°
2026-05-05 16:28 48.15877 14.11080 35722 ft 445 kts 321°
2026-05-05 16:28 48.20940 14.05748 35736 ft 445 kts 321°
2026-05-05 16:29 48.25967 14.00420 35726 ft 446 kts 321°
2026-05-05 16:29 48.31039 13.95041 35732 ft 446 kts 321°
2026-05-05 16:30 48.36094 13.89666 35728 ft 446 kts 321°
2026-05-05 16:30 48.41165 13.84266 35739 ft 446 kts 321°
2026-05-05 16:31 48.46232 13.78856 35732 ft 447 kts 321°
2026-05-05 16:31 48.51306 13.73433 35739 ft 447 kts 321°
2026-05-05 16:32 48.56378 13.67988 35735 ft 447 kts 321°
2026-05-05 16:32 48.61447 13.62528 35738 ft 448 kts 321°
2026-05-05 16:33 48.66365 13.56802 35747 ft 444 kts 312°
2026-05-05 16:33 48.70748 13.50221 35737 ft 444 kts 311°
2026-05-05 16:34 48.75139 13.43638 35736 ft 444 kts 311°
2026-05-05 16:34 48.79532 13.37036 35737 ft 444 kts 311°
2026-05-05 16:35 48.83916 13.30414 35733 ft 444 kts 311°
2026-05-05 16:35 48.88291 13.23783 35755 ft 445 kts 311°
2026-05-05 16:36 48.92671 13.17134 35733 ft 446 kts 311°
2026-05-05 16:36 48.97060 13.10457 35722 ft 446 kts 311°
2026-05-05 16:37 49.01446 13.03757 35723 ft 447 kts 311°
2026-05-05 16:37 49.05834 12.97043 35728 ft 447 kts 311°
2026-05-05 16:38 49.10221 12.90314 35730 ft 447 kts 311°
2026-05-05 16:38 49.14605 12.83557 35732 ft 447 kts 311°
2026-05-05 16:39 49.18984 12.76787 35727 ft 448 kts 311°
2026-05-05 16:39 49.23338 12.70067 35726 ft 448 kts 311°
2026-05-05 16:40 49.27721 12.63290 35750 ft 448 kts 311°
2026-05-05 16:40 49.32096 12.56488 35741 ft 448 kts 310°
2026-05-05 16:41 49.35801 12.48929 35743 ft 442 kts 299°
2026-05-05 16:41 49.39135 12.40984 35740 ft 443 kts 299°
2026-05-05 16:42 49.42470 12.33018 35744 ft 444 kts 299°
2026-05-05 16:42 49.45810 12.25035 35744 ft 444 kts 299°
2026-05-05 16:43 49.49141 12.17031 35743 ft 444 kts 299°
2026-05-05 16:43 49.52475 12.09021 35739 ft 445 kts 299°
2026-05-05 16:44 49.55807 12.00982 35737 ft 446 kts 298°
2026-05-05 16:44 49.59132 11.92920 35737 ft 446 kts 299°
2026-05-05 16:45 49.62460 11.84838 35740 ft 446 kts 299°
2026-05-05 16:45 49.65780 11.76755 35765 ft 446 kts 298°
2026-05-05 16:46 49.69099 11.68651 35776 ft 447 kts 298°
2026-05-05 16:46 49.72414 11.60525 35774 ft 447 kts 298°
2026-05-05 16:47 49.75727 11.52386 35776 ft 448 kts 298°
2026-05-05 16:47 49.79035 11.44223 35783 ft 448 kts 298°
2026-05-05 16:48 49.82339 11.36042 35797 ft 448 kts 298°
2026-05-05 16:48 49.85643 11.27854 35787 ft 449 kts 298°
2026-05-05 16:49 49.88946 11.19620 35782 ft 450 kts 298°
2026-05-05 16:49 49.92250 11.11370 35792 ft 450 kts 298°
2026-05-05 16:50 49.95529 11.03158 35799 ft 451 kts 298°
2026-05-05 16:50 49.98817 10.94871 35815 ft 451 kts 297°
2026-05-05 16:51 50.02120 10.86567 35800 ft 452 kts 297°
2026-05-05 16:51 50.05420 10.78227 35808 ft 453 kts 297°
2026-05-05 16:52 50.08156 10.71285 35804 ft 453 kts 297°
2026-05-05 16:52 50.11469 10.62924 35809 ft 454 kts 298°
2026-05-05 16:53 50.14788 10.54544 35827 ft 454 kts 297°
2026-05-05 16:53 50.18103 10.46137 35815 ft 455 kts 297°
2026-05-05 16:54 50.21414 10.37706 35818 ft 455 kts 297°
2026-05-05 16:54 50.24720 10.29274 35815 ft 455 kts 297°
2026-05-05 16:55 50.28016 10.20820 35817 ft 455 kts 297°
2026-05-05 16:55 50.31305 10.12360 35823 ft 456 kts 297°
2026-05-05 16:56 50.34596 10.03882 35820 ft 456 kts 297°
2026-05-05 16:56 50.37882 9.95377 35818 ft 456 kts 297°
2026-05-05 16:57 50.41158 9.86855 35809 ft 456 kts 297°
2026-05-05 16:57 50.44434 9.78325 35808 ft 457 kts 297°
2026-05-05 16:58 50.47709 9.69778 35818 ft 457 kts 297°
2026-05-05 16:58 50.50977 9.61212 35816 ft 457 kts 296°
2026-05-05 16:59 50.54561 9.52922 35815 ft 462 kts 305°
2026-05-05 16:59 50.58617 9.45073 35813 ft 462 kts 305°
2026-05-05 17:00 50.62646 9.37193 35808 ft 462 kts 304°
2026-05-05 17:00 50.66669 9.29302 35827 ft 462 kts 305°
2026-05-05 17:01 50.70689 9.21419 35822 ft 462 kts 305°
2026-05-05 17:01 50.74714 9.13497 35819 ft 462 kts 305°
2026-05-05 17:02 50.78697 9.05626 35813 ft 462 kts 305°
2026-05-05 17:02 50.82701 8.97682 35817 ft 462 kts 304°
2026-05-05 17:03 50.86701 8.89717 35812 ft 462 kts 304°
2026-05-05 17:03 50.90273 8.81376 35807 ft 452 kts 286°
2026-05-05 17:04 50.91032 8.76609 35810 ft 444 kts 275°
2026-05-05 17:04 50.91497 8.71775 35807 ft 444 kts 274°
2026-05-05 17:04 50.92387 8.62079 35815 ft 445 kts 274°
2026-05-05 17:05 50.93261 8.52369 35811 ft 445 kts 274°
2026-05-05 17:05 50.94124 8.42648 35820 ft 445 kts 274°
2026-05-05 17:06 50.94986 8.32912 35813 ft 446 kts 274°
2026-05-05 17:06 50.95845 8.23165 35460 ft 446 kts 274°
2026-05-05 17:07 50.96278 8.18295 34684 ft 447 kts 274°
2026-05-05 17:07 50.96720 8.13387 33891 ft 450 kts 274°
2026-05-05 17:07 50.97166 8.08465 32958 ft 453 kts 274°
2026-05-05 17:07 50.97602 8.03494 32037 ft 456 kts 274°
2026-05-05 17:08 50.98026 7.98493 31104 ft 459 kts 274°
2026-05-05 17:08 50.98434 7.93459 30178 ft 462 kts 274°
2026-05-05 17:08 50.98826 7.88388 29127 ft 465 kts 274°
2026-05-05 17:08 50.99342 7.83308 28120 ft 469 kts 282°
2026-05-05 17:09 51.00236 7.78361 27404 ft 464 kts 283°
2026-05-05 17:09 51.01131 7.73464 26698 ft 459 kts 284°
2026-05-05 17:09 51.02014 7.68614 26012 ft 455 kts 283°
2026-05-05 17:09 51.02952 7.63845 25342 ft 452 kts 290°
2026-05-05 17:10 51.04249 7.59319 24703 ft 448 kts 293°
2026-05-05 17:10 51.05551 7.54856 23948 ft 443 kts 293°
2026-05-05 17:10 51.06838 7.50432 23083 ft 439 kts 293°
2026-05-05 17:10 51.08112 7.46043 22222 ft 434 kts 293°
2026-05-05 17:11 51.09373 7.41704 21421 ft 429 kts 293°
2026-05-05 17:11 51.10613 7.37431 20648 ft 423 kts 293°
2026-05-05 17:11 51.11833 7.33214 19942 ft 417 kts 292°
2026-05-05 17:11 51.13034 7.29042 19235 ft 412 kts 292°
2026-05-05 17:12 51.14215 7.24922 18588 ft 408 kts 292°
2026-05-05 17:12 51.15368 7.20900 17946 ft 403 kts 292°
2026-05-05 17:12 51.16516 7.16903 17673 ft 387 kts 292°
2026-05-05 17:12 51.17609 7.13104 17561 ft 367 kts 292°
2026-05-05 17:13 51.18645 7.09493 17415 ft 350 kts 292°
2026-05-05 17:13 51.19630 7.06042 17285 ft 335 kts 292°
2026-05-05 17:13 51.20579 7.02713 16980 ft 327 kts 292°
2026-05-05 17:13 51.21514 6.99432 16591 ft 323 kts 292°
2026-05-05 17:14 51.22440 6.96169 16197 ft 322 kts 292°
2026-05-05 17:14 51.23358 6.92935 15857 ft 319 kts 292°
2026-05-05 17:14 51.24277 6.89702 15602 ft 318 kts 292°
2026-05-05 17:14 51.25185 6.86504 15329 ft 315 kts 292°
2026-05-05 17:15 51.26074 6.83357 15208 ft 307 kts 292°
2026-05-05 17:15 51.26937 6.80297 15075 ft 296 kts 292°
2026-05-05 17:15 51.27791 6.77372 14948 ft 283 kts 297°
2026-05-05 17:15 51.28987 6.74972 14826 ft 274 kts 317°
2026-05-05 17:16 51.30530 6.73283 14662 ft 265 kts 328°
2026-05-05 17:16 51.32107 6.71798 14366 ft 262 kts 328°
2026-05-05 17:16 51.33670 6.70319 14032 ft 260 kts 328°
2026-05-05 17:16 51.35222 6.68847 13726 ft 258 kts 327°
2026-05-05 17:17 51.36734 6.67318 13338 ft 255 kts 317°
2026-05-05 17:17 51.37642 6.65024 12949 ft 243 kts 278°
2026-05-05 17:17 51.37461 6.62452 12533 ft 232 kts 238°
2026-05-05 17:17 51.36326 6.60754 12065 ft 227 kts 201°
2026-05-05 17:18 51.34792 6.60163 11533 ft 229 kts 187°
2026-05-05 17:18 51.33214 6.60006 11069 ft 230 kts 181°
2026-05-05 17:18 51.31613 6.60445 10343 ft 243 kts 157°
2026-05-05 17:18 51.30259 6.62166 9571 ft 258 kts 127°
2026-05-05 17:19 51.29469 6.64829 8597 ft 274 kts 114°
2026-05-05 17:19 51.28466 6.67398 7976 ft 269 kts 136°
2026-05-05 17:19 51.26990 6.68993 7789 ft 249 kts 161°
2026-05-05 17:19 51.25331 6.69391 7398 ft 240 kts 186°
2026-05-05 17:20 51.23759 6.68605 7066 ft 237 kts 210°
2026-05-05 17:20 51.22526 6.66895 6731 ft 235 kts 235°
2026-05-05 17:20 51.21837 6.64633 6577 ft 222 kts 254°
2026-05-05 17:20 51.21384 6.62308 6283 ft 218 kts 248°
2026-05-05 17:21 51.20722 6.60136 5912 ft 218 kts 239°
2026-05-05 17:21 51.19850 6.58163 5529 ft 217 kts 232°
2026-05-05 17:21 51.18916 6.56266 5162 ft 218 kts 232°
2026-05-05 17:22 51.17055 6.52465 4450 ft 218 kts 232°
2026-05-05 17:22 51.16121 6.50559 4085 ft 219 kts 233°
2026-05-05 17:22 51.15096 6.48782 3837 ft 217 kts 217°
2026-05-05 17:22 51.13710 6.47873 3537 ft 217 kts 186°
2026-05-05 17:23 51.12231 6.48153 3240 ft 215 kts 155°
2026-05-05 17:23 51.11066 6.49490 3136 ft 199 kts 128°
2026-05-05 17:23 51.10443 6.51347 2984 ft 185 kts 103°
2026-05-05 17:23 51.10376 6.53306 2890 ft 171 kts 77°
2026-05-05 17:24 51.10760 6.54998 2842 ft 156 kts 56°
2026-05-05 17:24 51.11419 6.56224 2842 ft 137 kts 37°
2026-05-05 17:24 51.12281 6.57019 2853 ft 147 kts 19°
2026-05-05 17:24 51.13288 6.57320 2845 ft 149 kts
2026-05-05 17:25 51.14317 6.57228 2843 ft 147 kts 357°
2026-05-05 17:25 51.14995 6.57165 2841 ft 149 kts 357°
2026-05-05 17:25 51.16362 6.57038 2838 ft 148 kts 358°
2026-05-05 17:25 51.17418 6.56941 2841 ft 150 kts 358°
2026-05-05 17:26 51.18442 6.56923 2835 ft 148 kts
2026-05-05 17:26 51.19389 6.57538 2830 ft 148 kts 35°
2026-05-05 17:26 51.20089 6.58758 2734 ft 148 kts 51°
2026-05-05 17:26 51.20706 6.60043 2566 ft 147 kts 51°
2026-05-05 17:27 51.21329 6.61342 2385 ft 147 kts 52°
2026-05-05 17:27 51.21948 6.62630 2192 ft 147 kts 51°
2026-05-05 17:27 51.22560 6.63908 1993 ft 140 kts 50°
2026-05-05 17:27 51.23123 6.65084 1809 ft 129 kts 51°
2026-05-05 17:28 51.23655 6.66194 1643 ft 125 kts 50°
2026-05-05 17:28 51.24179 6.67288 1474 ft 124 kts 49°
2026-05-05 17:28 51.24700 6.68376 1313 ft 123 kts 50°
2026-05-05 17:28 51.25220 6.69464 1132 ft 123 kts 49°
2026-05-05 17:29 51.25746 6.70560 964 ft 125 kts 49°
2026-05-05 17:29 51.26273 6.71661 737 ft 125 kts 48°
2026-05-05 17:29 51.26801 6.72757 581 ft 125 kts 49°
2026-05-05 17:29 51.27326 6.73866 426 ft 125 kts 46°
2026-05-05 17:30 51.27849 6.74961 244 ft 123 kts 47°
2026-05-05 17:30 51.28360 6.76027 128 ft 111 kts 51°
2026-05-05 17:30 51.28659 6.76659 127 ft 31 kts 54°
2026-05-05 17:30 51.28779 6.76916 125 ft 29 kts 52°
2026-05-05 17:31 51.28900 6.77169 125 ft 29 kts 52°
2026-05-05 17:31 51.29006 6.77400 126 ft 19 kts 61°
2026-05-05 17:31 51.29000 6.77573 126 ft 8 kts 129°
2026-05-05 17:31 51.28956 6.77625 128 ft 8 kts 145°
2026-05-05 17:32 51.28906 6.77640 129 ft 8 kts 206°
2026-05-05 17:32 51.28868 6.77571 127 ft 10 kts 232°
2026-05-05 17:32 51.28817 6.77464 129 ft 14 kts 233°
2026-05-05 17:32 51.28748 6.77322 128 ft 18 kts 232°
2026-05-05 17:33 51.28665 6.77144 128 ft 22 kts 233°
2026-05-05 17:33 51.28565 6.76936 129 ft 26 kts 232°
2026-05-05 17:33 51.28452 6.76702 123 ft 27 kts 232°
2026-05-05 17:33 51.28336 6.76454 123 ft 28 kts 232°
2026-05-05 17:34 51.28259 6.76296 125 ft 13 kts 233°
2026-05-05 17:34 51.28188 6.76250 127 ft 13 kts 149°
2026-05-05 17:34 51.28129 6.76361 125 ft 13 kts 119°
2026-05-05 17:34 51.28062 6.76451 128 ft 7 kts 149°
2026-05-05 17:35 51.28033 6.76436 129 ft 5 kts 201°
2026-05-05 17:35 51.28016 6.76421 127 ft 0 kts 208°